www.pogodaiklimat.ru

Погода и климат >> Архив погоды >> Швеция >> Бюроклубб


ПОГОДА в Бюроклуббе

  • Прогноз погоды в Бюроклуббе
  • Монитор погоды в Бюроклуббе

АРХИВ ПОГОДЫ в Бюроклуббе

Время (UTC), дата Ветер
(напр.,м/с)
 
Видим.   Явления Облачность Т
(С)
Тd
(С)
f
(%)
Тe
(С)
Тes
(С)
Комфортность P
(гПа)
Po
(гПа)
Тmin
(С)
Tmax
(С)
R
(мм)
R24
(мм)
S
(см)
16 12.06 В 3
{5}
50 км 5/5
[]
+9.6 +3.2 64 +8 +9 1029.0 1024.4
17 12.06 В 4
{5}
50 км 1/1
[]
+8.9 +3.4 68 +6 +7 1028.4 1023.9
18 12.06 В 3
{5}
50 км 10/0
[]
+8.5 +2.4 65 +6 +7 1028.3 1023.7 +8.4 +11.9
19 12.06 В 4
{5}
50 км 10/8
[]
+7.8 +3.0 72 +5 +5 1027.8 1023.2
20 12.06 В 4
{5}
50 км 10/10
[]
+7.7 +3.4 74 +4 +4 1027.7 1023.1
21 12.06 В 5
{6}
50 км 10/0
[]
+7.6 +3.7 76 +4 +4 1027.2 1022.7
22 12.06 В 5
{7}
50 км 10/10
[]
+7.7 +3.6 75 +4 +4 1026.8 1022.3
23 12.06 В 4
{7}
н/о 10/10
[]
+7.7 +4.7 81 +4 +4 1026.5 1022.0
00 13.06 ЮВ 3
{6}
50 км 10/0
[]
+7.9 +5.2 83 +5 +5 1026.2 1021.7
01 13.06 Ю 3
{5}
50 км 10/10
[]
+8.7 +4.8 76 +6 +6 1026.2 1021.6
02 13.06 ЮВ 5
{7}
50 км 10/10
[]
+8.7 +5.0 78 +5 +5 1025.6 1021.1
03 13.06 ЮВ 5
{7}
н/о 10/0
[]
+8.5 +5.2 80 +5 +5 1025.1 1020.6
04 13.06 ЮВ 5
{7}
50 км 10/3
[]
+8.6 +5.3 80 +5 +6 1024.8 1020.3
05 13.06 ЮВ 5
{7}
50 км 8/4
[]
+9.2 +5.0 75 +6 +7 1024.6 1020.1
06 13.06 ЮВ 4
{7}
50 км ясно +10.1 +5.3 72 +8 +11 1024.6 1020.0 +7.4 +10.2
07 13.06 В 3
{6}
50 км 10/10
[]
+10.5 +5.9 73 +9 +9 1024.5 1020.0
08 13.06 В 4
{7}
50 км 10/10
[]
+11.7 +6.1 68 +10 +10 1024.3 1019.9
09 13.06 В 6
{8}
50 км 10/0
[]
+10.9 +5.4 69 +8 +10 1024.2 1019.7
10 13.06 В 6
{8}
50 км 10/10
[]
+10.1 +5.4 73 +7 +7 1023.9 1019.4
11 13.06 В 6
{9}
50 км 10/10 2000 м
[]
+10.8 +5.6 70 +8 +8 1023.4 1019.0
12 13.06 В 6
{8}
50 км 10/0 2000 м
[]
+10.8 +5.4 69 +8 +10 1023.2 1018.7
13 13.06 В 6
{8}
50 км 10/10
[]
+10.5 +5.0 69 +7 +7 1022.7 1018.2
14 13.06 В 5
{8}
50 км 10/8 2000 м
[]
+10.7 +5.4 70 +8 +8 1022.1 1017.6
15 13.06 В 6
{8}
50 км 10/10 1350 м
[]
+10.3 +5.4 72 +7 +7 1021.5 1017.0
16 13.06 В 4
{7}
50 км 10/5 1410 м
[]
+9.5 +5.7 77 +7 +7 1021.6 1017.1
17 13.06 В 6
{7}
50 км 10/6 1500 м
[]
+9.1 +5.6 79 +5 +6 1021.3 1016.8
18 13.06 В 7
{8}
50 км 10/10 1500 м
[]
+8.9 +5.6 80 +5 +5 1021.1 1016.5 +8.9 +12.2
19 13.06 В 6
{8}
50 км 10/4
[]
+8.9 +5.4 79 +5 +5 1020.9 1016.4
20 13.06 В 3
{7}
50 км 10/10
[]
+8.7 +5.6 81 +6 +6 1021.1 1016.6
21 13.06 В 4
{6}
50 км 10/0
[]
+8.9 +5.3 78 +6 +6 1021.5 1017.0
22 13.06 В 4
{6}
50 км 10/10
[]
+8.8 +5.5 80 +6 +6 1021.0 1016.5
23 13.06 С 2
{4}
50 км 10/10
[]
+8.9 +5.7 80 +7 +7 1020.4 1015.9
00 14.06
{5}
45 км 10/0
[]
+8.9 +6.9 87 1020.3 1015.8
01 14.06
{6}
50 км 10/10
[]
+8.9 +7.2 89 1020.3 1015.8
02 14.06 СВ 3
{5}
50 км 10/6
[]
+8.5 +6.9 90 +6 +6 1019.8 1015.2
03 14.06 В 4
{5}
50 км 10/0
[]
+8.8 +6.2 84 +6 +6 1019.5 1015.0
04 14.06 В 4
{5}
50 км 10/10
[]
+9.4 +5.9 79 +7 +7 1019.5 1015.0
05 14.06 СВ 3
{4}
50 км 10/10
[]
+9.8 +5.8 76 +8 +8 1019.6 1015.1
06 14.06 С 3
{4}
50 км 5/0
[]
+11.1 +6.1 71 +9 +13 1019.5 1015.1 +8.3 +11.2
07 14.06 С 4
{5}
50 км 8/8
[]
+11.4 +7.0 74 +9 +10 1019.7 1015.2
08 14.06 С 4
{6}
50 км 10/10
[]
+12.9 +7.4 69 +11 +11 1019.4 1015.0
09 14.06 С 4
{6}
50 км 10/0
[]
+11.1 +7.0 76 +9 +13 1019.2 1014.7
10 14.06 С 5
{6}
45 км 10/10
[]
+12.4 +6.7 68 +10 +10 1019.1 1014.7
11 14.06 С 2
{5}
50 км 10/10
[]
+12.8 +6.2 64 +12 +12 1019.0 1014.6
12 14.06 С 3
{5}
50 км 6/0
[]
+12.3 +5.9 65 +11 +18 1018.5 1014.0
13 14.06 С 3
{4}
45 км ясно +13.8 +6.1 60 +13 +21 1017.8 1013.3
14 14.06 С 4
{5}
50 км 6/6
[]
+13.9 +6.5 61 +13 +15 1017.4 1013.0
15 14.06 С 3
{5}
50 км 10/0
[]
+13.4 +5.2 58 +12 +15 1016.7 1012.3
16 14.06 С 3
{4}
50 км ясно +14.8 +4.5 50 +14 +17 1016.1 1011.7
17 14.06 С 2
{4}
50 км 8/8
[]
+14.6 +3.2 46 +14 +15 1015.3 1010.9
18 14.06 С 1
{3}
50 км 10/0
[]
+14.3 +3.4 48 +15 +16 1015.0 1010.6 +10.9 +15.2
19 14.06 СЗ 1
{2}
50 км 10/10
[]
+13.9 +3.7 50 +14 +14 1015.1 1010.7
20 14.06
{1}
50 км 10/10
[]
+14.4 +3.1 47 1014.6 1010.2
21 14.06 Ю 4
{5}
45 км 10/0
[]
+12.8 +5.1 59 +11 +11 1014.7 1010.3
22 14.06 З 4
{5}
50 км 10/6
[]
+12.2 +4.9 61 +10 +10 1014.7 1010.2
23 14.06 З 2
{5}
50 км 10/10
[]
+12.5 +5.9 64 +12 +12 1014.7 1010.2
00 15.06 ЮЗ 3
{4}
50 км 10/0
[]
+11.3 +6.2 71 +10 +10 1014.2 1009.8
01 15.06 З 3
{4}
50 км 10/10
[]
+11.7 +6.9 72 +10 +10 1013.9 1009.5
02 15.06 З 3
{4}
50 км 10/10
[]
+12.6 +7.8 73 +11 +11 1013.9 1009.5
03 15.06 З 3
{4}
50 км 10/0 2000 м
[]
+14.0 +8.1 68 +13 +13 1014.0 1009.7
04 15.06 З 2
{3}
50 км 10/10
[]
+14.3 +8.4 68 +14 +14 1014.4 1010.0
05 15.06 З 1
{2}
50 км 9/8
[]
+15.7 +7.4 58 +16 +17 1014.5 1010.1
06 15.06 С 2
{3}
50 км 5/0
[]
+17.1 +6.2 49 +17 +22 1014.7 1010.3 +10.8 +17.4
07 15.06 С 7
{8}
50 км ясно +17.2 +8.8 58 +16 +18 1015.2 1010.8
08 15.06 С 6
{8}
50 км ясно +14.1 +9.3 73 +12 +16 1015.9 1011.5
09 15.06 В 4
{7}
45 км ясно +13.5 +8.7 73 +12 +20 1016.3 1011.9
10 15.06 СВ 3
{5}
н/о ясно +14.1 +7.9 66 +13 +24 опасность
простуды
1016.7 1012.3
11 15.06 С 2
{5}
45 км ясно +15.4 +7.7 60 +15 +28 опасность
простуды
1016.8 1012.4
12 15.06 В 2
{4}
50 км ясно +15.6 +6.8 56 +16 +27 1016.8 1012.4
13 15.06 В 3
{4}
45 км ясно +14.1 +7.4 64 +13 +22 1016.6 1012.2
14 15.06 В 3
{4}
45 км ясно +14.4 +8.1 66 +14 +20 1016.5 1012.1
15 15.06 Ю 2
{5}
50 км ясно +17.2 +9.5 61 +18 +23 1016.2 1011.8
16 15.06 Ю 5
{7}
50 км ясно +18.7 +6.3 44 +19 +21 1015.7 1011.4
17 15.06 Ю 4
{8}
50 км ясно +17.8 +5.9 46 +18 +19 1015.3 1011.0
18 15.06 Ю 5
{7}
50 км ясно +17.3 +4.2 42 +17 +17 1015.0 1010.7 +13.1 +19.4
19 15.06 Ю 5
{9}
50 км ясно +16.6 +2.9 40 +16 +16 1014.9 1010.5
20 15.06 Ю 5
{6}
50 км ясно +14.8 +5.5 54 +13 +13 1014.6 1010.2
21 15.06 ЮЗ 5
{7}
50 км ясно +13.7 +6.8 63 +12 +12 1014.3 1009.9
22 15.06 З 7
{9}
50 км ясно +15.4 +6.8 56 +14 +14 1014.1 1009.8
23 15.06 З 8
{9}
50 км ясно +14.3 +8.3 67 +12 +12 1013.9 1009.5
00 16.06 З 7
{9}
50 км ясно +14.4 +7.9 65 +12 +12 1013.5 1009.1
01 16.06 З 7
{11}
50 км ясно +15.9 +8.2 60 +14 +14 1013.0 1008.6
02 16.06 ЮЗ 6
{9}
50 км ясно +15.4 +8.3 63 +14 +14 1012.8 1008.4
03 16.06 ЮЗ 4
{7}
50 км ясно +15.2 +8.9 66 +14 +15 1012.5 1008.2
04 16.06 З 4
{6}
50 км ясно +15.8 +9.5 66 +15 +16 1012.5 1008.2
05 16.06 ЮЗ 3
{5}
50 км ясно +16.6 +10.4 67 +16 +19 1012.6 1008.2
06 16.06 З 2
{4}
50 км ясно +18.9 +11.2 61 +20 +26 1012.7 1008.4 +13.6 +18.9
07 16.06 З 1
{2}
50 км ясно +20.7 +9.7 49 +23 +33 комфорт 1012.5 1008.2
08 16.06 В 3
{4}
45 км ясно +19.4 +10.2 55 +21 +29 комфорт 1012.3 1008.0
09 16.06 Ю 3
{5}
30 км ясно +20.6 +11.4 56 +23 +33 комфорт 1012.1 1007.8
10 16.06 Ю 5
{8}
40 км ясно +21.3 +11.1 52 +23 +30 комфорт 1011.7 1007.5
11 16.06 Ю 5
{7}
40 км 6/4 2000 м
[]
+19.4 +10.8 57 +20 +24 1011.6 1007.3
12 16.06 Ю 7
{9}
35 км 10/0
[]
+21.0 +10.8 52 +23 +24 комфорт 1011.1 1006.9
13 16.06 Ю 7
{9}
н/о 10/1
[]
+19.9 +10.2 54 +21 +22 комфорт 1010.9 1006.6
14 16.06 Ю 7
{9}
45 км ясно +20.3 +10.5 53 +21 +24 комфорт 1010.4 1006.2
15 16.06 Ю 8
{10}
45 км ясно +18.6 +9.7 56 +18 +19 1010.1 1005.8
16 16.06 Ю 7
{10}
50 км 8/8
[]
+15.5 +9.6 68 +14 +14 1009.9 1005.5
17 16.06 Ю 7
{9}
50 км 1/0
[]
+16.0 +9.7 66 +15 +15 1009.5 1005.1
18 16.06 Ю 7
{9}
50 км 9/0
[]
+14.3 +9.3 72 +12 +12 1009.3 1004.9 +14.3 +22.3
19 16.06 Ю 6
{9}
50 км 10/10
[]
+13.8 +9.4 75 +12 +12 1009.0 1004.6
20 16.06 Ю 6
{9}
50 км 10/4 2000 м
[]
+13.6 +9.1 74 +11 +11 1008.8 1004.4
21 16.06 Ю 6
{8}
50 км 10/0
[]
+13.0 +9.0 77 +11 +11 1008.6 1004.2
22 16.06 Ю 6
{8}
50 км 10/10
[]
+12.5 +8.9 79 +10 +10 1008.5 1004.1
23 16.06 Ю 6
{8}
50 км 10/10
[]
+12.1 +8.6 79 +9 +9 1008.4 1004.0
00 17.06 З 7
{9}
50 км 10/0
[]
+14.3 +9.1 71 +12 +12 1008.0 1003.6
01 17.06 З 6
{8}
50 км 8/8
[]
+12.2 +8.9 80 +10 +10 1007.8 1003.4
02 17.06 З 6
{7}
н/о 8/0
[]
+11.8 +9.0 83 +9 +9 1007.6 1003.2
03 17.06 З 5
{7}
н/о 5/0
[]
+15.0 +10.2 73 +14 +14 1007.5 1003.2
04 17.06 ЮЗ 4
{6}
50 км ясно +15.6 +10.6 72 +15 +16 1007.5 1003.2
05 17.06 Ю 3
{5}
50 км ясно +16.9 +10.9 68 +17 +20 1007.5 1003.2
06 17.06 Ю 4
{6}
50 км ясно +15.4 +10.1 71 +14 +18 1007.1 1002.8 +11.6 +17.6
07 17.06 ЮЗ 4
{8}
50 км ясно +18.3 +11.6 65 +18 +24 1007.0 1002.7
08 17.06 Ю 3
{5}
45 км 8/3
[]
+20.9 +11.1 53 +23 +27 комфорт 1006.8 1002.6
09 17.06 Ю 8
{10}
50 км 10/0
[]
+14.4 +9.8 74 +12 +13 1006.6 1002.3
10 17.06 Ю 6
{9}
45 км 10/3
[]
+18.0 +10.5 62 +17 +19 1006.3 1002.0
11 17.06 Ю 7
{9}
35 км 4/1
[]
+19.5 +11.3 59 +20 +23 1006.1 1001.8
12 17.06 Ю 6
{10}
45 км 4/0
[]
+20.0 +11.5 58 +21 +25 комфорт 1006.1 1001.8
13 17.06 Ю 6
{9}
50 км 10/6
[]
+18.5 +11.2 62 +18 +19 1006.1 1001.8
14 17.06 Ю 4
{7}
50 км в посл. час дождь {ливн. осадки, метель} 10/1 1500 м
[]
+19.8 +12.0 61 +21 +24 комфорт 1006.1 1001.8 0.0
15 17.06 СВ 3
{7}
50 км {ливн. осадки, метель} 10/0
[]
+16.4 +10.9 70 +16 +19 1006.5 1002.2
16 17.06 Ю 4
{7}
50 км в посл. час дождь {ливн. осадки, метель} 10/3 2000 м
[]
+15.1 +11.5 79 +14 +15 1006.3 1002.0 0.0
17 17.06 З 12
{16}
40 км в посл. час дождь {ливн. осадки, метель} 10/3 1500 м
[]
+16.6 +14.1 85 +15 +15 1007.1 1002.7
18 17.06 З 8
{16}
50 км в посл. час дождь {ливн. осадки, метель} 10/0
[]
+15.7 +13.5 87 +14 +14 1006.8 1002.5 +14.4 +22.4
19 17.06 С 4
{10}
50 км слаб. ливневой дождь 10/3 1140 м
[]
+15.9 +12.7 81 +15 +15 1005.8 1001.4 0.2
20 17.06 З 5
{6}
50 км в посл. час дождь {ливн. осадки} 8/3
[]
+15.0 +13.4 90 +14 +14 1006.3 1002.0 0.1
21 17.06 З 6
{9}
40 км {ливн. осадки, дождь} 10/0
[]
+13.9 +12.6 92 +12 +12 1006.7 1002.3
22 17.06 З 5
{8}
50 км {ливн. осадки, дождь} 10/10
[]
+14.2 +12.5 90 +12 +12 1006.8 1002.4
23 17.06 З 4
{6}
50 км {ливн. осадки, дождь} 8/8
[]
+13.7 +12.1 90 +12 +12 1006.8 1002.4
00 18.06 З 7
{8}
50 км {ливн. осадки, дождь} 1/0
[]
+13.5 +11.6 88 +11 +11 1007.0 1002.6
01 18.06 З 5
{8}
50 км ясно +12.7 +11.0 89 +10 +10 1007.0 1002.6
02 18.06 З 6
{7}
50 км 3/1 2000 м
[]
+12.6 +10.8 89 +10 +10 1007.2 1002.8
03 18.06 З 6
{7}
50 км ясно +13.0 +10.9 87 +11 +11 1007.2 1002.8
04 18.06 З 5
{6}
50 км 1/1 1500 м
[]
+14.0 +11.0 82 +12 +13 1007.4 1003.0
05 18.06 З 5
{6}
н/о 1/0
[]
+15.5 +11.3 76 +14 +16 1007.7 1003.3
06 18.06 З 6
{7}
50 км ясно +17.6 +11.6 68 +17 +19 1007.6 1003.3 +12.6 +17.6
07 18.06 З 6
{9}
50 км ясно +19.5 +11.7 61 +20 +24 1007.6 1003.3
08 18.06 Ю 4
{7}
35 км ясно +19.5 +11.7 61 +21 +27 комфорт 1007.4 1003.1
09 18.06 Ю 6
{9}
30 км ясно +19.7 +12.1 62 +21 +25 комфорт 1007.4 1003.1
10 18.06 Ю 6
{10}
40 км ясно +20.3 +12.0 59 +22 +27 комфорт 1007.3 1003.0
11 18.06 Ю 9
{12}
35 км ясно +19.8 +9.9 53 +20 +22 1007.1 1002.9
12 18.06 Ю 9
{12}
40 км ясно +18.9 +9.9 56 +19 +20 1006.8 1002.5
13 18.06 Ю 8
{13}
45 км 6/5 1500 м
[]
+18.3 +10.5 60 +18 +19 1006.6 1002.3
14 18.06 Ю 7
{11}
45 км ясно +18.6 +10.7 60 +18 +21 1006.3 1002.0
15 18.06 Ю 7
{11}
50 км 3/0 2000 м
[]
+19.2 +10.6 57 +20 +21 1006.3 1002.0
16 18.06 Ю 6
{10}
50 км 6/6
[]
+17.1 +9.9 63 +16 +17 1006.5 1002.1
17 18.06 Ю 5
{11}
50 км 4/1
[]
+17.3 +10.2 63 +17 +18 1006.5 1002.2
18 18.06 Ю 6
{13}
50 км слаб. ливневой дождь 10/0 2000 м
[]
+16.0 +11.2 73 +15 +15 1006.7 1002.3 +14.5 +20.8 0.1
19 18.06 Ю 5
{8}
50 км в посл. час дождь {ливн. осадки, метель} 1/0
[]
+16.6 +10.1 65 +16 +16 1006.7 1002.3 0.0
20 18.06 З 5
{7}
50 км {ливн. осадки, метель} 1/0
[]
+15.8 +10.9 73 +15 +15 1007.0 1002.6
21 18.06 З 7
{9}
50 км слаб. дождь 10/0 2000 м
[]
+15.6 +12.3 81 +14 +14 1007.4 1003.1
22 18.06 Ю 5
{9}
50 км в посл. час дождь {ливн. осадки} 10/10
[]
+14.2 +11.3 83 +12 +12 1007.2 1002.8
23 18.06 З 4
{6}
50 км {ливн. осадки, дождь} 10/3
[]
+14.1 +10.8 81 +13 +13 1007.2 1002.8
00 19.06 З 5
{5}
50 км {ливн. осадки, дождь} 5/0 2000 м
[]
+13.9 +11.4 85 +12 +12 1007.3 1003.0
01 19.06 СЗ 3
{5}
50 км 10/1 2000 м
[]
+13.3 +9.9 80 +12 +12 1007.3 1002.9
02 19.06 С 4
{5}
45 км 10/8
[]
+14.2 +8.4 68 +13 +13 1007.4 1003.0
03 19.06 С 5
{6}
50 км 10/0 2000 м
[]
+13.8 +9.4 75 +12 +12 1007.0 1002.6
04 19.06 С 4
{6}
30 км слаб. дождь 10/8 1500 м
[]
+13.0 +9.7 80 +11 +11 1007.9 1003.6 0.2
05 19.06 С 8
{10}
50 км в посл. час дождь {ливн. осадки} 10/5 1500 м
[]
+12.7 +10.6 87 +10 +10 1007.6 1003.2 0.9
06 19.06 С 7
{9}
50 км {ливн. осадки, дождь} 10/10 1500 м
[]
+13.0 +10.8 86 +10 +10 1007.4 1003.0 +11.9 +16.7
07 19.06 В 6
{9}
50 км 10/10 2000 м
[]
+12.7 +10.4 86 +10 +10 1007.3 1002.9
08 19.06 В 4
{7}
50 км 10/3 2000 м
[]
+13.5 +10.6 83 +12 +14 1007.9 1003.5
09 19.06 В 3
{5}
50 км 10/0
[]
+13.2 +10.7 85 +12 +17 1008.2 1003.8
10 19.06 С 5
{7}
45 км 10/4 180 м
[]
+14.5 +10.6 77 +13 +15 1008.8 1004.4
11 19.06 С 5
{6}
45 км 4/4
[]
+15.5 +11.2 76 +14 +18 1009.2 1004.8
12 19.06 С 3
{5}
45 км 10/0
[]
+15.2 +10.9 75 +15 +19 1009.6 1005.2
13 19.06 С 3
{4}
45 км ясно +15.6 +11.3 76 +15 +24 1009.8 1005.5
14 19.06 В 3
{4}
50 км ясно +14.9 +11.1 78 +14 +21 1010.0 1005.6
15 19.06 Ю 4
{6}
45 км ясно +15.2 +10.2 72 +14 +18 1010.1 1005.7
16 19.06 Ю 3
{6}
50 км ясно +15.1 +10.1 72 +14 +18 1010.3 1005.9

 

Местоположение метеостанции Бюроклубб (Швеция): широта 64.48 долгота 21.58 высота над уровнем моря 43 м.

В архиве по умолчанию представлена погода в Бюроклуббе за последнюю неделю. Архивные данные за месяц целиком и за предыдущие месяцы, начиная с января 2011 года, Вы можете получить, выбрав интересующий диапазон дат из раскрывающегося списка и нажав кнопку "Ввод!".


*Определитесь, кто Вы:
робот инопланетянин человек

Внимание! Время в таблицах - всемирное. Для получения местного времени необходимо прибавить поправку, которая равна 1 ч.

Смотрите также архив погоды в соседних городах и на ближайших метеорологических станциях:

Погода в Хокмарксбергете (Швеция) (17 км)
Погода в Скеллефтеа (Швеция) (29 км)
Погода в Пите-Роннскаре (Швеция) (61 км)
Погода на Хольмёне (Швеция) (83 км)
Погода на Танкаре (Финляндия) (85 км)
Погода в Петистраске (Швеция) (90 км)
Погода на Острове Улкокалла (Финляндия) (91 км)
Погода на Острове Каллан (Финляндия) (93 км)
Погода в Умео (Швеция) (98 км)
Погода в Родкаллене (Швеция) (101 км)

Пояснения к столбцам:

Ветер - указаны скорость ветра в м/с - средняя за 10 мин, порывы в срок и между сроками (в фигурных скобках) и направление, откуда дует ветер: С - северный, СВ - северо-восточный, В - восточный, ЮВ - юго-восточный, Ю - южный, ЮЗ - юго-западный, З - западный, СЗ - северо-западный.
Видимость - горизонтальная дальность видимости в метрах или километрах. При видимости от 1 до 10 км при отсутствии осадков обычно наблюдается дымка, при ухудшении видимости до 1 км и менее - туман. В сухую погоду видимость может ухудшаться дымом, пылью или мглою.
Явления - указаны атмосферные явления, наблюдавшиеся в срок или в последний час перед сроком; фигурными скобками обозначены явления, наблюдавшиеся между сроками (за 1-3 часа до срока); квадратными скобками обозначены град или гололедные отложения с указанием их диаметра в мм.
Облачность - указаны через наклонную черту общая и нижняя облачность в баллах и высота нижней границы облаков в метрах; квадратными скобками обозначены формы облаков: Ci - перистые, Cs - перисто-слоистые, Cc - перисто-кучевые, Ac - высококучевые, As - высокослоистые, Sc - слоисто-кучевые, Ns - слоисто-дождевые, Cu - кучевые, Cb - кучево-дождевые. Подробнее классификацию облаков см. в Атласе облаков (PDF).
T - Температура воздуха - температура, измеренная на высоте 2 м над землей.
Td - Температура точки росы - температура, при понижении до которой содержащийся в воздухе водяной пар достигнет насыщения.
f - Относительная влажность воздуха - влажноcть воздуха, измеренная на высоте 2 м над землей.
Te - Эффективная температура - температура, которую ощущает одетый по сезону человек в тени. Характеристика душности погоды. При расчете учитывается влияние влажности воздуха и скорости ветра на теплоощущения человека.
Tes - Эффективная температура на солнце - температура, которую ощущает человек, с поправкой на солнечный нагрев. Характеристика знойности погоды. Зависит от высоты солнца над горизонтом, облачности и скорости ветра. Ночью, в пасмурную погоду, а также при ветре 12 м/с и более поправка равна нулю.
P - Атмосферное давление - приведенное к уровню моря атмосферное давление.
Po - Атмосферное давление - измеренное на уровне метеостанции атмосферное давление.
Tmin - Минимальная температура - минимум температуры воздуха на высоте 2 м над землей.
Tmax - Максимальная температура - максимум температуры воздуха на высоте 2 м над землей.
R - Количество осадков - Количество выпавших осадков за период времени, мм. При наведении курсора мыши на число - период времени, за который выпало указанное количество осадков.
R24 - Количество осадков - Количество выпавших осадков за 24 часа, мм.
S - Снежный покров - Высота снежного покрова, см. При наведении курсора мыши на число - состояние снежного покрова и степень покрытия местности в баллах.